FENGYUN 1C DEB *, 47005

Orbit data source: Space-Track

FENGYUN 1C DEB *, 47005 is space debris in SSO originally from a launch on Mon, 10 May 1999 UTC launched from the Taiyaun Space Center, China (TSC). Fengyun 1C debris stems from the Chinese weather satellite Fengyun-1C, which was intentionally destroyed by a Chinese anti-satellite missile in 2007. This event dramatically increased the amount of space debris, with thousands of trackable fragments posing hazards to satellites and human spaceflight. The Fengyun 1C debris cloud has become a focal point in discussions about space sustainability and the need for international regulations to prevent the creation of new debris.

Loading next visibility...
Identifier
47005, 1999-025FAF
Orbit
SSO
Country
Flag of CNCN / PRC
Related business
Manufacturer
Unknown
Mission
Spacecraft
Bus & Motor
Unknown
Mass
Unknown
Launch date (UTC)
1999-05-10 (27 years ago)
Launch vehicle
Unknown
Launch site
Taiyaun Space Center, China (TSC)
Object type
Payload
Rocket body
Debris
Shape & HBR
Unknown shape, 0.1 m
Radar Cross Section
Small (<0.1 m²)

Expand to show TLE details & history
Last TLE update: 4 days ago

TLE from 4 days ago
0 FENGYUN 1C DEB *
1 47005U 99025FAF 26169.56514022  .00002449  00000-0  13223-2 0  9992
2 47005  99.5984 276.5754 0062523  86.4584 290.3788 14.12704221854188
Epoch: 2026-06-18T13:33Z
TLE epoch observation values (Epoch: 2026-06-18T13:33:48.115Z)
Latitude
15.9128°
Longitude
163.56945°
Altitude
836.846 km
Speed
7.444 km/s
True Right ascension
18h 15m 18s
True Declination
15° 49' 24"
Sunlit
Object was in full shadow at epoch
Visualization orbit readout
Latitude
Unknown
Longitude
Unknown
Altitude
Unknown
Speed
Unknown
Apparent Right ascension
Unknown
Apparent Declination
Unknown
Sunlit
N/A
Visualization observer readout
Local Sidereal Time
21:34:16
Azimuth
Unknown
Elevation
Unknown
Doppler factor
Unknown
Orbital elements
Apogee altitude
892.521 km
Perigee altitude
802.169 km
Semi-major axis
7,225.482 km
Eccentricity
0.00625
Inclination
99.5984°
RAAN
276.5754°
Arg. of periapsis
86.4584°
True anomaly
289.70536°
Mean anomaly
290.3788°
Eccentric anomaly
290.04226°
Mean motion
3.53381 °/min
Orbital period
101.87 mins
BSTAR
0.0013223
Loading maneuver chart data...
Computing Atmospheric mass density...
Loading historical data...
Loading historical data...
Loading historical data...
Loading historical data...
Loading historical data...
Loading historical data...
Loading historical data...

Documentation

Showing up to 5 results
|